Location: Chena
(64.8152°N, 147.9227°W)
Time: 18:19:52
(UTC+00:00)

JY1SAT - Visible Passes

Search period start: 16 April 2021 00:00
Search period end: 26 April 2021 00:00
Orbit: 570 x 589 km, 97.7° (Epoch: 16 April)

Date Brightness Start Highest point End Pass type
(mag) Time Alt. Az. Time Alt. Az. Time Alt. Az.
16 Apr ? 06:21:52 10° SE 06:25:57 55° ENE 06:30:04 10° NNW visible
16 Apr ? 07:57:39 10° SSW 08:01:30 35° W 08:05:24 10° NNW visible
17 Apr ? 06:26:43 10° SE 06:30:50 59° ENE 06:34:59 10° NNW visible
17 Apr ? 08:02:38 10° SSW 08:06:27 33° W 08:10:16 10° NNW visible
18 Apr ? 06:31:35 10° SE 06:35:44 64° ENE 06:39:54 10° NNW visible
18 Apr ? 08:07:39 10° SSW 08:11:23 31° W 08:15:09 10° NNW visible
19 Apr ? 06:36:28 10° SSE 06:40:37 69° ENE 06:44:48 10° NNW visible
19 Apr ? 08:12:40 10° SSW 08:16:20 29° W 08:20:00 10° NNW visible
20 Apr ? 06:41:20 10° SSE 06:45:31 74° ENE 06:49:43 10° NNW visible
20 Apr ? 08:17:41 10° SSW 08:21:16 27° W 08:24:52 10° NNW visible
21 Apr ? 06:46:13 10° SSE 06:50:24 79° ENE 06:54:37 10° NNW visible
21 Apr ? 08:22:43 10° SSW 08:26:13 25° W 08:29:43 10° NW visible
22 Apr ? 06:51:07 10° SSE 06:55:18 85° ENE 06:59:31 10° NNW visible
22 Apr ? 08:27:46 10° SW 08:31:09 23° W 08:34:34 10° NW visible
23 Apr ? 06:56:00 10° SSE 07:00:11 89° SW 07:04:24 10° NNW visible
23 Apr ? 08:32:50 10° SW 08:36:06 22° W 08:39:24 10° NW visible
24 Apr ? 07:00:54 10° SSE 07:05:06 84° WSW 07:09:19 10° NNW visible
24 Apr ? 08:37:55 10° SW 08:41:04 20° W 08:44:14 10° NW visible
25 Apr ? 07:05:48 10° SSE 07:09:59 78° WSW 07:14:13 10° NNW visible
25 Apr ? 08:42:59 10° SW 08:46:01 19° W 08:49:02 10° NW visible
